[[{"header":{"parameterUnit":"m.s-1","parameterCategory":1,"la1":30.2991,"la2":30.254,"lo1":-89.0895,"lo2":-89.0444,"dy":0.0017,"dx":0.0017,"nx":28,"ny":28,"refTime":"2024-07-02T21:00:00:Z","depth":0,"parameterNumber":2,"parameterNumberName":"U-component_of_WINDS"},"data":[0,0,0,0,0,0,0,0,0,0,0,0,0,0,0,0,0,0,0,0,0,0,0,0,0,0,0,0,0,0,0,0,0,0,0,0,0,0,0,0,0,0,0,0,0,0,0,0,0,0,0,0,0,0,0,0,0,0,0.5503,0.5505,0,0.5631,0.5633,0.5634,0.5658,0.5657,0.5656,0.5655,0.5787,0.5792,0.5796,0,0,0,0,0,0,0,0,0,0,0,0,0,0.5278,0.5282,0.5503,0.5505,0.5506,0.5631,0.5633,0.5635,0.5658,0.5657,0.5656,0.5655,0.5786,0.5791,0.5796,0,0,0,0,0,0,0,0,0,0,0,0,0,0.5388,0.5284,0.5503,0.5533,0.5537,0.5631,0.5633,0.5635,0.5659,0.5657,0.5656,0.5654,0.5784,0.579,0.5797,0.587,0,0,0.5818,0.5821,0,0,0,0,0,0,0,0,0.5382,0.5396,0.5527,0.5531,0.5536,0.5627,0.5602,0.5714,0.5659,0.5613,0.5655,0.5653,0.5735,0.5746,0.5773,0.5876,0.5881,0.5818,0.5822,0.5825,0.5827,0,0,0,0,0,0,0,0.5374,0.5391,0.5554,0.5529,0.5534,0.554,0.5554,0.5623,0.5681,0.5616,0.5619,0.5633,0.5737,0.5767,0.5777,0.5883,0.5818,0.5824,0.5828,0.5831,0.605,0.6051,0,0,0,0,0,0,0.5361,0.5384,0.555,0.5558,0.5453,0.5545,0.5561,0.5599,0.568,0.5691,0.5635,0.5634,0.5756,0.5769,0.5781,0.5871,0.5825,0.5831,0.5835,0.6048,0.605,0.6052,0,0,0,0,0,0,0.5356,0.5376,0.5545,0.5472,0.5494,0.5551,0.5594,0.5603,0.5632,0.5694,0.5704,0.5654,0.5755,0.5772,0.5847,0.5875,0.5834,0.5841,0.6046,0.6049,0.6051,0.605,0,0,0,0,0,0,0.535,0.5374,0.5402,0.5472,0.5497,0.5608,0.5596,0.5606,0.5644,0.5644,0.5715,0.5725,0.5755,0.5837,0.5854,0.5884,0.5846,0.6044,0.6047,0.605,0.6048,0.6052,0.6056,0,0,0,0,0,0.5342,0.5397,0.5404,0.5423,0.5534,0.561,0.5624,0.5658,0.5646,0.5675,0.5714,0.5723,0.5869,0.5844,0.5863,0.5896,0.6042,0.6046,0.605,0.6046,0.6051,0.6056,0,0,0,0,0,0,0.533,0.5407,0.5415,0.5495,0.5546,0.5614,0.5651,0.5663,0.5718,0.5716,0.5755,0.5771,0.5844,0.5878,0.5848,0.597,0.5955,0.5963,0.5945,0.5951,0.5955,0.5945,0.5851,0,0,0,0,0,0.5336,0.5392,0.5456,0.552,0.5545,0.5594,0.5628,0.5649,0.5703,0.5725,0.577,0.5822,0.588,0.5917,0.5974,0.6052,0.6068,0.6084,0.6088,0.6091,0.6098,0.6141,0.6149,0.6065,0.6065,0.6065,0,0,0.5351,0.54,0.5433,0.5519,0.5561,0.5617,0.5612,0.5672,0.5713,0.5734,0.5808,0.5842,0.5903,0.598,0.6016,0.601,0.6124,0.6097,0.6099,0.6104,0.6146,0.6154,0.6161,0.6068,0.6068,0.6067,0,0,0.5406,0.5449,0.5507,0.5548,0.5611,0.5643,0.5656,0.5723,0.5746,0.582,0.5837,0.5887,0.5986,0.6028,0.6062,0.6131,0.6141,0.6148,0.617,0.6211,0.6218,0.6224,0.6248,0.6256,0.6154,0.6154,0.6154,0,0.5416,0.5501,0.5535,0.5594,0.5631,0.5651,0.571,0.5748,0.5827,0.5852,0.5844,0.5967,0.601,0.6096,0.6112,0.614,0.6156,0.6141,0.6214,0.6221,0.6227,0.625,0.6259,0.6155,0.6155,0.6155,0.6155,0,0.551,0.5569,0.5608,0.5682,0.5723,0.5782,0.5823,0.5861,0.5878,0.591,0.5985,0.6036,0.6103,0.6125,0.6142,0.6213,0.6207,0.6206,0.6193,0.6235,0.6257,0.6266,0.6155,0.6155,0.6155,0.6155,0,0,0.5563,0.5653,0.5667,0.57,0.5771,0.5816,0.5875,0.5939,0.5971,0.6024,0.6073,0.6155,0.6154,0.6193,0.6216,0.6252,0.6301,0.6246,0.6248,0.6254,0.6382,0.6382,0.6391,0.6308,0.631,0.6311,0.6376,0,0.5625,0.5731,0.5762,0.585,0.5904,0.5923,0.5974,0.6022,0.6053,0.6103,0.6138,0.6195,0.619,0.6213,0.625,0.6288,0.6327,0.6283,0.6354,0.6357,0.6339,0.6403,0.6404,0.6463,0.6385,0.6387,0.6388,0,0.5714,0.5767,0.586,0.5922,0.5946,0.5991,0.6052,0.61,0.6154,0.6174,0.6216,0.6235,0.6296,0.6278,0.6362,0.6331,0.6362,0.6385,0.6388,0.6396,0.6375,0.6413,0.6482,0.6491,0.6402,0.6401,0.64,0,0.5741,0.5837,0.5905,0.5933,0.6007,0.6038,0.607,0.6123,0.6159,0.6213,0.6236,0.6296,0.6328,0.6374,0.6408,0.6391,0.6488,0.6474,0.6506,0.6505,0.6526,0.6525,0.6602,0.6546,0.6546,0.6546,0.6546,0,0.5809,0.5865,0.5918,0.596,0.6023,0.6058,0.6119,0.6152,0.6199,0.6247,0.6267,0.6312,0.6354,0.6404,0.6431,0.6496,0.651,0.6528,0.6534,0.6526,0.6524,0.6547,0.6544,0.6548,0.6548,0.6547,0.6547,0,0.5851,0.5889,0.5964,0.6028,0.6045,0.6088,0.6142,0.6183,0.6214,0.6275,0.6291,0.634,0.64,0.6438,0.6514,0.6532,0.6603,0.6608,0.6584,0.6587,0.6618,0.6614,0.6712,0.6727,0.6661,0.6662,0.6663,0,0.5891,0.5935,0.6002,0.6036,0.6068,0.6122,0.6159,0.6194,0.6232,0.6296,0.6329,0.6389,0.644,0.6534,0.6577,0.6634,0.6641,0.6672,0.665,0.664,0.6641,0.6638,0.6642,0.6675,0.6676,0.6676,0.6676,0,0.5958,0.5975,0.6027,0.6086,0.6129,0.6177,0.6225,0.6251,0.6294,0.6335,0.6396,0.6435,0.6512,0.6572,0.6633,0.6666,0.6678,0.6683,0.6693,0.6685,0.667,0.6678,0.6593,0.668,0.668,0.668,0.668,0.6679,0.6001,0.604,0.6093,0.615,0.619,0.6234,0.6275,0.6311,0.6362,0.6427,0.6445,0.6508,0.656,0.6644,0.6677,0.6727,0.6723,0.6739,0.6743,0.6746,0.6746,0.6661,0.6739,0.6738,0.6738,0.6738,0.6738,0,0.6068,0.6103,0.6156,0.6221,0.6266,0.6273,0.6326,0.6363,0.6418,0.6466,0.6515,0.6584,0.6642,0.6688,0.6747,0.6778,0.6785,0.6792,0.679,0.6797,0.6747,0.6731,0.6785,0.6785,0.6785,0.6785,0.6785,0.6785,0.6109,0.6175,0.6197,0.6283,0.6318,0.638,0.6409,0.6449,0.6487,0.6563,0.6611,0.6641,0.6687,0.675,0.6802,0.6814,0.6835,0.6841,0.6854,0.6806,0.6801,0.6796,0.6782,0.6845,0.6846,0.6901,0.6901,0.6902]},{"header":{"parameterUnit":"m.s-1","parameterCategory":1,"la1":30.2991,"la2":30.254,"lo1":-89.0895,"lo2":-89.0444,"dy":0.0017,"dx":0.0017,"nx":28,"ny":28,"refTime":"2024-07-02T21:00:00:Z","depth":0,"parameterNumber":3,"parameterNumberName":"V-component_of_WINDS"},"data":[0,0,0,0,0,0,0,0,0,0,0,0,0,0,0,0,0,0,0,0,0,0,0,0,0,0,0,0,0,0,0,0,0,0,0,0,0,0,0,0,0,0,0,0,0,0,0,0,0,0,0,0,0,0,0,0,0,0,4.6413,4.6413,0,4.6419,4.6419,4.6419,4.6415,4.6415,4.6415,4.6414,4.6418,4.6418,4.6419,0,0,0,0,0,0,0,0,0,0,0,0,0,4.6395,4.6395,4.6413,4.6413,4.6413,4.6419,4.6419,4.6419,4.6415,4.6415,4.6415,4.6414,4.6418,4.6418,4.6419,0,0,0,0,0,0,0,0,0,0,0,0,0,4.6402,4.6395,4.6413,4.6412,4.6412,4.6419,4.6419,4.6419,4.6415,4.6415,4.6414,4.6414,4.6418,4.6418,4.6419,4.6427,0,0,4.642,4.642,0,0,0,0,0,0,0,0,4.6402,4.6403,4.6412,4.6412,4.6412,4.6416,4.6414,4.6422,4.6415,4.6414,4.6414,4.6414,4.6417,4.6418,4.642,4.6427,4.6427,4.642,4.642,4.642,4.6421,0,0,0,0,0,0,0,4.6401,4.6402,4.6415,4.6412,4.6412,4.641,4.6411,4.6416,4.6417,4.6414,4.6413,4.6414,4.6417,4.6419,4.642,4.6427,4.642,4.642,4.6421,4.6421,4.6443,4.6443,0,0,0,0,0,0,4.6401,4.6402,4.6415,4.6415,4.6406,4.6411,4.6411,4.6415,4.6417,4.6417,4.6415,4.6414,4.6419,4.6419,4.642,4.643,4.642,4.6421,4.6421,4.6443,4.6443,4.6444,0,0,0,0,0,0,4.6401,4.6402,4.6415,4.6409,4.641,4.6411,4.6415,4.6415,4.6417,4.6418,4.6418,4.6416,4.6418,4.6419,4.6426,4.643,4.6421,4.6421,4.6442,4.6443,4.6443,4.6451,0,0,0,0,0,0,4.64,4.6402,4.6406,4.6409,4.6411,4.6421,4.6415,4.6415,4.6418,4.6418,4.6419,4.6419,4.6418,4.6425,4.6426,4.6431,4.6422,4.6442,4.6443,4.6443,4.645,4.6452,4.6453,0,0,0,0,0,4.64,4.6407,4.6406,4.6407,4.6415,4.6421,4.6422,4.6422,4.6418,4.6422,4.6422,4.6419,4.643,4.6426,4.6427,4.6432,4.6442,4.6442,4.6443,4.645,4.6452,4.6453,0,0,0,0,0,0,4.6402,4.6407,4.6406,4.6414,4.6418,4.6421,4.6425,4.6423,4.6427,4.6426,4.6424,4.6425,4.6432,4.6432,4.6428,4.644,4.6435,4.6436,4.644,4.6441,4.6443,4.6442,4.6422,0,0,0,0,0,4.6404,4.641,4.6413,4.642,4.6422,4.6423,4.6426,4.6425,4.6428,4.6429,4.643,4.6433,4.6437,4.6439,4.6442,4.6451,4.6451,4.6455,4.6456,4.6457,4.6458,4.6463,4.6465,4.6446,4.6446,4.6446,0,0,4.6407,4.6411,4.6414,4.6421,4.6423,4.6429,4.6424,4.643,4.6434,4.643,4.6436,4.6437,4.644,4.6448,4.6451,4.6448,4.6463,4.6458,4.6459,4.6459,4.6464,4.6466,4.6467,4.6447,4.6447,4.6446,0,0,4.6416,4.6419,4.6426,4.6429,4.6434,4.6435,4.6436,4.644,4.6441,4.6448,4.6445,4.645,4.6456,4.6459,4.646,4.6472,4.647,4.6473,4.648,4.6485,4.6487,4.6488,4.6493,4.6494,4.6474,4.6474,4.6474,0,4.642,4.6429,4.6429,4.6436,4.6439,4.6438,4.6444,4.6447,4.6452,4.6454,4.6451,4.6461,4.6462,4.6471,4.6474,4.6475,4.6477,4.6473,4.6487,4.6488,4.6489,4.6494,4.6495,4.6475,4.6475,4.6475,4.6475,0,4.6433,4.6439,4.6444,4.645,4.6454,4.6461,4.6462,4.6466,4.6466,4.6467,4.6474,4.6476,4.6481,4.6483,4.6482,4.6492,4.649,4.6487,4.6481,4.6491,4.6496,4.6497,4.6475,4.6475,4.6475,4.6475,0,0,4.6442,4.6451,4.6453,4.6456,4.6462,4.6466,4.6473,4.6479,4.6482,4.6486,4.6491,4.6498,4.6496,4.6498,4.6497,4.6502,4.6512,4.6498,4.6498,4.6501,4.6524,4.6526,4.6528,4.651,4.6511,4.6511,4.6524,0,4.6452,4.6465,4.6467,4.6478,4.6484,4.6483,4.6489,4.6493,4.6495,4.65,4.6501,4.6506,4.6502,4.6504,4.6509,4.651,4.6516,4.6509,4.6515,4.6516,4.6515,4.653,4.6533,4.6544,4.6525,4.6526,4.6526,0,4.6465,4.6471,4.6483,4.6489,4.6492,4.6497,4.6503,4.6508,4.6513,4.6514,4.6517,4.6517,4.6523,4.6518,4.6527,4.6522,4.6525,4.6526,4.6527,4.6527,4.6521,4.6531,4.6548,4.655,4.6528,4.6528,4.6528,0,4.6471,4.6482,4.6491,4.6494,4.6502,4.6506,4.6509,4.6513,4.6517,4.6522,4.6525,4.653,4.6533,4.6537,4.6537,4.6533,4.6547,4.6541,4.6548,4.6548,4.655,4.655,4.6568,4.6552,4.6552,4.6552,4.6552,0,4.6482,4.6489,4.6495,4.65,4.6509,4.6511,4.6519,4.6522,4.6527,4.6532,4.6532,4.6537,4.6537,4.6543,4.6543,4.6551,4.6552,4.6553,4.6553,4.6553,4.6553,4.6555,4.6554,4.6552,4.6552,4.6552,4.6552,0,4.649,4.6494,4.6504,4.6511,4.6513,4.6519,4.6525,4.653,4.6533,4.654,4.6542,4.6545,4.6552,4.6553,4.656,4.656,4.657,4.6569,4.6569,4.6569,4.6576,4.6575,4.6595,4.6598,4.658,4.658,4.658,0,4.6497,4.6503,4.6512,4.6516,4.652,4.6527,4.6532,4.6534,4.6539,4.6545,4.655,4.6557,4.6562,4.6573,4.6575,4.6581,4.658,4.6587,4.6581,4.6581,4.6581,4.6581,4.6582,4.6588,4.6588,4.6588,4.6588,0,4.6508,4.6511,4.6518,4.6526,4.6532,4.6538,4.6544,4.6548,4.6551,4.6556,4.6564,4.6568,4.6577,4.6584,4.659,4.6592,4.6591,4.6591,4.6592,4.6593,4.6593,4.6593,4.6573,4.659,4.659,4.659,4.659,4.6589,4.6516,4.6523,4.653,4.6538,4.6544,4.655,4.6556,4.6559,4.6566,4.6574,4.6575,4.6583,4.6589,4.6597,4.66,4.6606,4.6604,4.6606,4.6607,4.6608,4.6609,4.6592,4.6607,4.6607,4.6607,4.6607,4.6607,0,4.6528,4.6534,4.6542,4.6551,4.6558,4.6558,4.6565,4.657,4.6578,4.6584,4.659,4.6599,4.6606,4.661,4.6617,4.6621,4.6621,4.6623,4.6622,4.6623,4.661,4.6608,4.6623,4.6623,4.6623,4.6623,4.6623,4.6623,4.6536,4.6546,4.655,4.6563,4.6568,4.6577,4.6582,4.6587,4.6592,4.6603,4.6609,4.6612,4.6617,4.6625,4.6631,4.6632,4.6635,4.6637,4.6638,4.6625,4.6624,4.6622,4.662,4.6638,4.6638,4.665,4.665,4.665]}]]